Regional Weather Roundup
Issued by NWS State College, PA

Home | Current Version | Previous Version | Text Only | Print | Product List | Glossary Off
Versions: 1 2 3 4 5 6 7 8 9 10 11 12 13 14 15 16 17 18 19 20 21 22 23 24 25 26 27 28 29 30 31 32 33 34 35 36 37 38 39 40 41 42 43 44 45 46 47 48 49 50

000
ASUS41 KCTP 280603
RWRCTP

REGIONAL WEATHER ROUNDUP
NATIONAL WEATHER SERVICE STATE COLLEGE PA
100 AM EST SUN DEC 28 2014

Note: "fair" indicates few or no clouds below 12,000 feet with no
significant weather and/or obstructions to visibility.

* = STATION THAT DOES NOT REPORT PRECIPITATION /E.G. RAIN...SNOW...ETC/
    THUNDER OR FOG.

PAZ002>004-007>009-013>016-020>023-029>032-280700-
WESTERN PENNSYLVANIA

CITY           SKY/WX    TMP DP  RH WIND       PRES   REMARKS
ERIE           LGT RAIN  47  43  86 SW9       29.92F
MEADVILLE      LGT RAIN  44  42  93 SW5       29.93F FOG
FRANKLIN*      CLOUDY    45  39  81 W6        29.96F
NEW CASTLE     LGT RAIN  45  45 100 CALM      29.98F FOG
BEAVER COUNTY  NOT AVBL
BUTLER*        CLOUDY    43  41  93 SW9       30.00S
PITTSBURGH INT LGT RAIN  45  42  89 SW7       29.98F
PITTSBURGH     LGT RAIN  45  39  79 NW9       29.97R
INDIANA*       CLOUDY    46  39  76 W6        30.01R HAZE
LATROBE        CLOUDY    54  25  32 SW13G20   29.99R
WASHINGTON CO* NOT AVBL
$$

PAZ004>006-010>012-017>019-024>028-033>037-041-042-045-046-049>053-280700-
CENTRAL PENNSYLVANIA

CITY           SKY/WX    TMP DP  RH WIND       PRES   REMARKS
BRADFORD       LGT RAIN  44  36  73 SW7       29.91F
DUBOIS         LGT RAIN  42  40  92 W13       29.94F FOG
CLEARFIELD     RAIN      44  38  79 SW8       29.94F
JOHNSTOWN      CLOUDY    50  20  30 SW10      29.95F
ALTOONA        CLOUDY    48  28  46 CALM      29.94F
STATE COLLEGE  CLOUDY    48  31  52 SW8       29.93F
WILLIAMSPORT   CLOUDY    49  32  52 SE5       29.93F
SELINSGROVE    CLOUDY    49  31  49 SW3       29.97F
FT INDIANTOWN  MOCLDY    39  35  84 NE1       29.99F
CAPITAL CITY   PTCLDY    44  33  65 CALM      29.99F
HARRISBURG     MOCLDY    42  32  67 CALM      29.98F
YORK           MOCLDY    43  32  65 CALM      29.99F
$$

PAZ038>040-043-044-047-048-054-055-060>062-067>071-280700-
EASTERN PENNSYLVANIA

CITY           SKY/WX    TMP DP  RH WIND       PRES   REMARKS
SCRANTON       MOCLDY    48  29  47 SW12      29.94F
MOUNT POCONO   MOCLDY    43  27  53 SW6       29.96F
ALLENTOWN      PTCLDY    35  30  82 CALM      30.00F
QUAKERTOWN*    PTCLDY    36  32  87 CALM      30.01F
READING        PTCLDY    39  33  79 N5        29.99F
LANCASTER      MOCLDY    38  33  82 E5        29.99F
COATESVILLE    PTCLDY    45  37  76 S3        30.03F
POTTSTOWN      PTCLDY    42  33  70 CALM      30.01F
BLUE BELL      CLEAR     37  34  87 CALM      30.02F
DOYLESTOWN     CLEAR     41  34  76 S5        30.02F
WILLOW GROVE   NOT AVBL
NORTH PHILA    CLEAR     39  33  79 CALM      30.06F
PHILADELPHIA   MOCLDY    40  34  79 CALM      30.06F
$$



USA.gov is the U.S. government's official web portal to all federal, state and local government web resources and services.